Location: ??
(35.1714°N, 128.2806°E)
Time: 14:15:17
(UTC+00:00)

Cosmos 2058 Rocket - Pass Details

Date: 29 October 2020
Orbit: 610 x 640 km, 82.5° (Epoch: 01 December)

Event Time Altitude Azimuth Distance (km) Brightness Sun altitude
Rises 20:20:35 0° 355° (N) 2,938 6.4 -18.0°
Reaches altitude 10° 20:22:51 10° 357° (N) 2,022 5.6 -17.6°
Maximum altitude 20:27:20 73° 83° (E) 660 3.3 -16.6°
Drops below altitude 10° 20:31:44 10° 168° (SSE) 1,990 5.9 -15.7°
Sets 20:33:57 0° 170° (S) 2,887 6.7 -15.3°
